Location: Caixon
(43.4106°N, 0.0273°E)
Time: 21:27:07
(UTC+00:00)

ARIANE 5 R/B - Pass Details

Date: 16 October 2021
Orbit: 749 x 794 km, 98.7° (Epoch: 07 December)

Event Time Altitude Azimuth Distance (km) Brightness Sun altitude
Rises 03:40:09 0° 11° (N) 3,208 6.1 -28.7°
Reaches altitude 10° 03:42:28 10° 9° (N) 2,278 5.2 -28.3°
Enters shadow 03:45:45 41° 355° (N) 1,083 3.2 -27.7°
